*** The Vicarage Weather Feed ***

NOAA NWS Hourly Roundups by Site

Regional Weather Roundup for Omaha, NE

To Select Another Site Choose from List

Select Site:  

000
ASUS43 KOAX 141210
RWRNE

WEATHER ROUNDUP FOR NEBRASKA
NATIONAL WEATHER SERVICE OMAHA NE
600 AM CST FRI DEC 14 2018

NOTES: SATELLITE DATA IS BEING USED TO AUGMENT CLOUD COVER ABOVE
       12000 FEET.
       "FAIR" INDICATES FEW OR NO CLOUDS BELOW 12,000 FEET WITH NO
       SIGNIFICANT WEATHER AND/OR OBSTRUCTIONS TO VISIBILITY.


NEZ001>004-019>022-054>056-141300-
NEBRASKA PANHANDLE

CITY           SKY/WX    TMP DP  RH WIND       PRES   REMARKS
SCOTTSBLUFF    CLEAR     25  14  63 NW6       30.25S WCI  18
6HR MIN TEMP:  23; 6HR MAX TEMP:  27;

ALLIANCE       CLEAR     15  13  91 W5        30.23R WCI   8
6HR MIN TEMP:  15; 6HR MAX TEMP:  22;

CHADRON        CLEAR     27  18  69 SW7       30.24R WCI  19
6HR MIN TEMP:  23; 6HR MAX TEMP:  28;

GORDON         FAIR      32  19  59 W16       30.20R WCI  21
6HR MIN TEMP:  28; 6HR MAX TEMP:  32;

KIMBALL        CLEAR     30  12  47 NW12      30.23F WCI  20
SIDNEY         CLEAR     23  14  68 W12       30.24S WCI  12
6HR MIN TEMP:  21; 6HR MAX TEMP:  27;

$$

NEZ057>060-069>072-079>082-141300-
SOUTHWEST NEBRASKA

CITY           SKY/WX    TMP DP  RH WIND       PRES   REMARKS
NORTH PLATTE   CLEAR     14  11  87 NW6       30.24F WCI   5
6HR MIN TEMP:  14; 6HR MAX TEMP:  19;

IMPERIAL       CLEAR     22  12  65 W8        30.25S WCI  12
6HR MIN TEMP:  18; 6HR MAX TEMP:  27;

LEXINGTON      FAIR      21  17  86 W5        30.25S WCI  14
MCCOOK         CLEAR     18  14  84 W10       30.26F WCI   6
6HR MIN TEMP:  18; 6HR MAX TEMP:  21;

OGALLALA       CLEAR     20  17  85 SW6       30.25S WCI  13
$$

NEZ005>010-023>029-035>040-094-141300-
NORTH CENTRAL NEBRASKA

CITY           SKY/WX    TMP DP  RH WIND       PRES   REMARKS
VALENTINE      CLEAR     21  17  84 W8        30.20R WCI  11
6HR MIN TEMP:  20; 6HR MAX TEMP:  24;

AINSWORTH      CLEAR     22  17  78 W8        30.18F WCI  13
BROKEN BOW     FAIR      20  14  77 CALM      30.22S
6HR MIN TEMP:  16; 6HR MAX TEMP:  21;

O`NEILL        FAIR      21  16  83 SW3       30.21R
ORD            FAIR      15  13  91 NW6       30.23R WCI   6
6HR MIN TEMP:  15; 6HR MAX TEMP:  22;

THEDFORD       CLEAR     19  15  84 W8        30.21S WCI   9
$$

NEZ041-046>049-061>064-073>077-083>087-141300-
SOUTH CENTRAL NEBRASKA

CITY           SKY/WX    TMP DP  RH WIND       PRES   REMARKS
GRAND ISLAND   CLOUDY    22  17  81 W8        30.25S WCI  12
6HR MIN TEMP:  20; 6HR MAX TEMP:  26;

AURORA         CLOUDY    21  19  90 W6        30.25R WCI  14
HASTINGS       CLOUDY    24  19  81 W6        30.25R WCI  17
6HR MIN TEMP:  22; 6HR MAX TEMP:  30;

HEBRON         CLOUDY    25  21  86 CALM      30.26R
HOLDREGE       CLOUDY    21  17  84 W5        30.24S WCI  14
KEARNEY        CLOUDY    19  16  88 W6        30.26R WCI  11
YORK           CLOUDY    23  19  86 NW5       30.24S WCI  17
$$

NEZ011>018-030>034-042>045-141300-
NORTHEAST NEBRASKA

CITY           SKY/WX    TMP DP  RH WIND       PRES   REMARKS
NORFOLK        CLOUDY    16  15  96 CALM      30.22S
6HR MIN TEMP:  16; 6HR MAX TEMP:  24;

ALBION         PTCLDY    18  16  90 CALM      30.24R
BLAIR          CLOUDY    23  21  92 CALM      30.23S
COLUMBUS       CLOUDY    19  16  88 W3        30.25F
FREMONT        PTCLDY    20  19  95 W5        30.25S WCI  14
TEKAMAH        PTCLDY    17  14  88 W3        30.25S
6HR MIN TEMP:  15; 6HR MAX TEMP:  26;

WAYNE          CLOUDY    13   9  85 CALM      30.23R
$$

NEZ050>053-065>068-078-088>093-141300-
SOUTHEAST NEBRASKA

CITY           SKY/WX    TMP DP  RH WIND       PRES   REMARKS
LINCOLN        CLEAR     20  18  92 CALM      30.27R FOG
6HR MIN TEMP:  17; 6HR MAX TEMP:  29;

OMAHA EPPLEY   CLOUDY    22  19  89 CALM      30.25S
6HR MIN TEMP:  20; 6HR MAX TEMP:  25;

BEATRICE       CLOUDY    19  17  93 CALM      30.24S
FALLS CITY     CLOUDY    29  27  92 N9        30.23S WCI  20
6HR MIN TEMP:  29; 6HR MAX TEMP:  35;

NEBRASKA CITY  CLEAR     26  23  89 N7        30.24R WCI  18
PLATTSMOUTH    CLOUDY    24  22  94 NW6       30.24S WCI  17
$$

NEZ044-045-051>053-067-141300-
OMAHA AREA

CITY           SKY/WX    TMP DP  RH WIND       PRES   REMARKS
OMAHA EPPLEY   CLOUDY    22  19  89 CALM      30.25S
6HR MIN TEMP:  20; 6HR MAX TEMP:  25;

BLAIR          CLOUDY    23  21  92 CALM      30.23S
FREMONT        PTCLDY    20  19  95 W5        30.25S WCI  14
MILLARD        CLOUDY    23  21  93 CALM      30.25S
OFFUTT AFB     CLEAR     20  20 100 CALM      30.24S
PLATTSMOUTH    CLOUDY    24  22  94 NW6       30.24S WCI  17
WAHOO          FAIR      20  18  93 NW5       30.25R WCI  13
$$


 

View Past Reports for Omaha, NE.

Products Courtesy of NOAA-NWS
NWS Information Parsing Script by Ken True at Saratoga Weather - Script by SE Lincoln Weather.

This data is offered only as a general guide to local weather conditions. It should not be relied upon in lieu of officially disseminated weather information for determining possible risk to persons or property. This site, including all information contained therein, is made available as is without warranties of any kind, either express or implied. The Vicarage Weather Feed© includes links to other sites for user convenience only. The content of any linked third-party site is not controlled by The Vicarage Weather Feed©. Access to any third-party website through The Vicarage Weather Feed©, regardless of whether or not the third-party site is a linked site, is entirely at the users own risk. Externally sourced content or material is excluded from The Vicarage Weather Feed© copyright and is the copyright and property of the respective provider. Skywarn® and the Skywarn® logo are registered trademarks of the National Oceanic and Atmospheric Administration, used with permission.